Location: ???? ???? ?????
(31.2680°N, 31.7283°E)
Time: 04:24:00
(UTC+00:00)

VEP-3 - Pass Details

Date: 13 July 2020
Orbit: 1021 x 33722 km, 23.7° (Epoch: 11 August)

Event Time Altitude Azimuth Distance (km) Brightness Sun altitude
Rises 20:13:23 0° 265° (W) 3,822 5.9 -31.3°
Reaches altitude 10° 20:15:22 10° 257° (WSW) 3,063 5.2 -31.5°
Enters shadow 20:19:46 41° 214° (SW) 2,204 4.0 -32.0°
Exits shadow 20:39:38 15° 118° (ESE) 8,756 6.9 -33.8°
Drops below altitude 10° 20:45:38 10° 116° (ESE) 10,785 7.4 -34.2°
Sets 21:11:51 0° 113° (ESE) 18,080 8.7 -35.9°
